Theta_e
321 322 323 324 324 325 325 326 325 326 326 327 326 327 327 327 325 316 309 318 320 327 322 315 313 312 313 312 312 310 298 296 299 298 298 301 299 302 301 298 300 304 300 301 305
319 319 320 321 322 323 324 324 325 325 325 326 325 326 326 326 316 313 323 328 328 327 315 310 309 310 307 309 309 303 299 301 301 300 298 301 300 300 297 298 299 300 302 303 303
318 318 318 319 320 322 323 323 324 324 325 325 325 325 325 323 312 312 329 328 327 324 314 312 311 310 306 308 306 303 299 302 303 302 302 301 300 302 298 297 299 300 302 300 300
317 317 317 317 318 320 321 322 323 324 324 324 324 324 324 320 300 314 328 325 325 318 312 310 309 306 303 303 307 299 304 304 305 303 301 299 301 300 300 300 303 303 304 301 300
317 316 316 316 317 319 320 321 321 323 323 323 324 324 321 309 308 315 323 322 314 313 309 308 305 306 303 303 304 300 302 304 303 302 301 302 299 299 299 302 305 304 302 300 301
316 316 316 316 316 318 319 319 321 322 322 322 323 323 314 301 314 314 310 311 312 310 307 307 306 306 303 301 300 301 302 301 302 302 302 299 298 299 300 303 303 303 300 301 301
317 316 315 315 316 317 317 318 320 321 322 322 323 321 309 305 313 312 310 309 309 309 307 308 308 305 306 302 304 301 296 299 300 301 299 300 295 297 302 301 301 301 301 300 301
317 316 316 315 316 316 317 318 319 320 322 323 324 318 304 314 312 310 310 308 310 310 309 309 308 306 304 303 300 296 296 291 298 300 299 298 291 300 302 301 299 299 299 300 300
316 315 316 316 316 316 317 317 318 321 322 323 318 314 304 315 310 311 310 307 307 308 309 308 309 303 302 295 293 296 290 292 296 300 297 295 292 298 299 297 298 298 299 300 301
316 315 316 316 316 316 317 318 320 318 318 320 314 306 307 305 310 310 308 309 306 305 304 303 301 297 296 294 287 290 291 293 292 296 296 293 293 298 299 298 297 297 298 299 300
316 316 316 316 316 317 314 313 306 307 309 304 306 304 305 309 311 307 307 305 305 302 295 299 294 291 294 297 297 296 294 292 296 298 295 294 294 297 299 298 297 299 300 300 300
317 317 317 317 317 317 313 306 306 305 297 304 304 306 308 310 304 306 306 299 299 294 297 295 292 297 299 298 295 294 292 292 295 297 294 293 293 296 297 298 299 299 299 300 298
318 317 316 316 316 314 309 307 312 311 298 299 302 302 303 306 301 302 302 300 297 294 295 292 295 300 297 295 293 293 291 292 291 294 291 289 288 291 295 298 299 300 300 300 297
318 317 316 315 311 311 307 310 312 310 290 294 298 302 304 304 297 305 304 301 297 294 295 294 298 297 294 293 294 289 295 293 292 288 285 291 281 289 292 293 294 297 297 296 296
317 316 316 314 309 307 307 310 309 305 280 297 296 306 304 298 298 298 301 299 295 294 294 292 292 292 292 293 295 292 293 290 290 288 286 287 283 288 293 291 293 295 297 298 297
317 317 315 312 312 311 311 309 306 288 279 293 298 296 297 297 297 297 297 298 298 294 294 293 295 293 293 293 293 292 290 289 287 285 279 286 285 284 288 292 292 294 295 297 297
317 316 313 315 309 311 310 304 287 281 294 292 293 295 295 294 295 293 292 290 288 285 286 290 292 293 293 289 290 290 287 280 278 277 279 288 285 289 291 292 293 294 295 295 296
317 316 313 314 314 310 305 295 281 293 292 296 294 295 292 294 294 293 291 288 292 290 287 286 286 292 292 292 290 287 289 281 275 277 283 284 281 287 294 296 294 295 297 295 295
317 314 311 312 311 310 298 284 288 296 298 295 295 290 290 293 293 293 290 290 292 292 287 286 287 290 291 292 293 288 283 290 282 277 277 285 287 291 292 293 293 294 293 292 293
313 310 308 314 311 304 292 289 292 301 300 297 290 291 287 290 289 291 291 294 293 295 296 291 286 289 286 289 288 288 290 282 283 272 272 282 281 285 288 292 291 290 291 291 293
311 305 309 313 309 298 286 289 296 301 301 296 293 289 288 287 289 289 290 294 295 295 296 293 289 286 286 284 285 283 283 285 286 284 278 278 282 288 290 291 291 291 293 292 293
308 297 307 309 295 294 289 293 297 297 299 295 292 292 291 292 289 288 287 290 295 295 290 293 290 284 288 290 289 289 288 287 282 281 281 283 284 293 291 292 292 291 293 293 294
302 302 305 306 291 290 290 293 296 295 296 295 293 294 294 289 286 290 291 296 296 293 291 292 286 280 283 288 285 284 287 288 288 286 283 281 284 294 296 292 291 291 291 292 293
298 293 295 297 300 295 293 290 290 297 295 296 295 295 291 288 291 288 289 292 294 295 296 295 287 284 280 284 288 284 286 287 287 283 283 283 286 291 293 294 295 296 293 293 292
296 293 295 288 289 293 295 294 291 290 296 298 294 293 289 286 289 288 289 290 293 295 292 289 283 285 287 288 288 287 286 287 285 285 282 284 285 289 292 293 295 296 296 294 293
290 291 290 289 290 289 290 290 290 293 294 292 292 294 293 289 291 289 289 290 289 290 290 290 282 284 282 286 286 284 286 287 287 287 287 287 286 293 294 295 294 295 295 295 295
295 295 289 286 286 286 287 289 290 292 293 296 295 294 292 293 295 296 298 297 295 292 287 286 284 282 279 284 284 280 284 285 287 289 288 284 289 294 293 294 295 296 296 296 296
Wind_Speed
17 18 17 18 18 18 17 17 16 14 13 11 12 10 9 7 5 4 7 2 6 7 2 4 5 6 5 4 3 1 3 5 8 0 0 6 5 6 1 1 3 7 2 4 16
15 16 17 18 18 18 18 18 17 16 15 13 13 11 8 7 5 12 5 12 11 7 3 6 6 7 4 4 4 4 3 6 3 5 3 6 7 6 2 6 7 5 7 6 13
16 16 17 18 18 18 18 18 17 15 15 14 13 11 9 6 5 2 5 11 9 6 4 5 5 4 7 5 6 6 5 1 4 2 3 5 5 7 6 8 8 12 11 13 10
16 17 17 18 18 18 18 18 17 16 15 14 14 12 9 4 6 3 7 8 8 6 4 4 4 3 5 8 9 4 11 8 1 2 1 4 4 6 12 11 2 3 3 19 19
15 17 18 19 19 20 20 19 18 16 15 15 13 10 5 5 7 6 7 6 6 5 5 7 7 8 7 5 2 8 9 6 6 4 5 7 9 8 13 11 14 7 3 15 17
15 17 18 20 21 22 23 22 20 17 16 16 12 6 4 9 5 11 7 5 6 6 7 5 5 3 5 7 6 5 7 10 7 9 7 6 6 5 9 15 14 9 12 11 15
12 16 18 19 21 23 24 24 23 20 18 15 7 4 7 14 6 7 8 4 2 5 8 6 4 4 4 7 5 3 7 9 11 11 6 5 10 16 21 5 8 11 12 13 13
9 9 11 17 17 21 25 26 24 22 17 8 5 5 8 3 4 4 7 4 4 3 3 5 2 4 3 3 4 4 5 4 2 11 6 9 14 12 16 13 14 11 9 9 13
8 9 10 11 14 18 22 27 26 19 8 2 5 4 6 1 3 6 6 4 6 3 2 1 3 4 4 3 6 9 7 10 8 10 9 10 10 4 4 2 7 10 11 12 13
9 10 11 12 14 17 22 25 12 6 5 6 6 2 6 3 4 4 2 2 3 7 4 5 5 4 4 7 10 7 10 9 10 9 7 7 17 13 9 6 11 11 12 13 13
9 9 11 13 15 18 13 7 3 3 5 8 5 5 5 5 2 5 6 6 4 4 7 7 6 14 20 16 18 13 15 16 22 10 9 15 17 18 15 10 11 14 18 15 14
9 9 10 13 15 17 10 2 7 3 10 10 16 11 2 6 5 9 9 9 8 12 9 5 17 19 10 11 7 9 12 19 15 10 10 12 14 11 10 17 18 18 18 21 8
9 8 9 14 15 10 5 4 3 2 6 7 13 8 6 9 10 12 15 7 8 10 15 21 8 19 14 12 13 19 13 19 18 13 4 5 8 13 11 20 19 20 21 18 11
10 8 8 14 6 7 2 6 5 4 5 6 6 1 2 3 6 4 13 7 8 15 12 17 19 18 17 16 10 22 10 11 12 7 11 9 9 9 7 9 10 16 15 12 10
11 8 3 3 7 5 5 5 6 3 10 3 3 1 4 4 2 3 6 3 14 7 5 8 4 7 13 22 11 17 4 4 5 7 7 8 10 9 11 10 13 11 14 14 10
12 9 6 4 4 4 2 6 3 4 11 5 7 6 4 6 1 1 2 3 2 6 14 16 5 2 4 3 1 4 0 4 3 2 11 11 12 5 9 12 7 9 14 16 8
13 13 10 3 1 1 1 2 4 10 2 6 7 7 5 6 7 8 6 6 6 3 8 6 19 4 4 2 2 4 3 4 4 3 14 15 15 19 6 8 11 12 13 7 9
14 12 10 8 5 3 2 2 14 6 17 2 4 7 6 8 8 9 6 7 14 8 4 5 7 17 10 17 10 10 10 7 8 7 20 5 10 7 10 11 12 12 17 10 10
11 3 3 8 4 5 6 6 13 6 8 13 16 15 11 9 6 8 11 9 8 21 12 8 10 3 5 2 10 6 7 4 4 1 5 11 12 9 4 11 11 15 8 9 9
1 3 4 12 11 6 3 15 16 9 7 12 16 8 13 11 10 9 9 6 9 13 18 5 10 7 2 4 3 3 3 3 3 3 9 22 12 17 7 17 9 6 8 7 7
2 4 1 15 9 3 9 14 16 11 12 13 16 14 13 12 15 14 17 18 6 5 18 5 6 3 6 9 10 4 5 5 2 6 10 15 16 7 6 3 10 9 8 9 10
3 5 5 12 5 4 11 10 10 20 8 8 2 10 21 25 23 14 15 13 18 13 3 4 3 7 19 5 3 9 15 14 11 14 5 9 32 6 8 10 10 9 10 8 8
4 3 6 5 8 8 5 12 14 18 16 9 13 15 12 14 12 14 21 32 23 6 1 6 3 5 9 14 4 6 5 7 8 8 17 19 31 8 16 10 8 10 8 8 10
4 4 3 4 9 18 16 12 16 15 23 23 12 7 7 12 18 7 10 11 10 15 13 6 7 15 16 17 13 11 16 9 15 13 24 23 32 32 27 25 23 22 9 11 10
3 5 5 4 7 16 18 12 20 17 21 16 10 26 18 11 17 19 23 28 17 15 4 6 10 21 26 27 31 32 31 29 20 20 22 28 27 31 32 20 25 14 15 8 10
3 4 5 4 8 6 9 16 28 23 24 26 26 22 22 25 26 25 23 20 17 1 12 12 9 17 23 27 32 34 32 34 37 35 35 37 36 35 33 29 29 26 23 20 16
1 2 1 6 8 10 12 10 7 16 15 26 26 27 27 29 30 32 27 23 12 13 12 12 9 9 19 24 25 23 37 37 35 33 33 31 43 46 33 33 37 27 23 22 15
Wind_Direction
16 11 11 9 6 3 1 359 358 355 354 353 353 342 329 322 311 203 243 199 146 138 141 147 209 209 234 229 223 244 280 268 268 319 270 105 196 150 105 193 212 180 355 77 135
13 9 3 1 360 357 355 352 351 349 347 346 345 340 329 331 258 252 173 124 130 154 217 207 210 167 241 214 194 214 232 262 28 359 285 161 216 170 184 209 217 197 111 121 143
3 3 0 356 351 350 349 345 343 342 339 338 337 333 326 312 270 227 92 126 141 173 271 310 302 244 236 225 202 220 230 64 310 308 358 286 220 244 189 245 203 211 192 162 165
355 354 353 350 346 342 341 338 336 334 332 328 328 325 321 235 273 101 136 135 157 212 238 213 236 211 226 227 224 265 244 260 312 86 289 251 281 258 215 229 326 215 210 163 176
347 347 346 344 340 337 334 331 327 324 321 317 320 321 285 223 250 138 134 146 165 185 216 216 232 232 255 271 246 223 262 280 256 180 239 278 257 253 255 243 239 222 156 173 188
341 341 341 339 337 334 330 326 321 317 314 311 308 312 243 246 110 145 156 156 214 206 206 221 238 348 303 258 260 6 304 291 265 216 219 225 256 209 236 234 242 231 194 196 196
330 333 334 335 334 331 327 321 316 312 310 307 289 223 258 244 142 145 163 190 192 246 239 224 304 219 339 258 342 278 300 268 238 215 227 166 272 233 242 250 230 230 215 197 212
319 329 330 329 329 328 324 316 309 306 301 283 217 209 252 15 89 173 165 141 195 211 288 58 260 256 221 351 247 231 233 282 273 169 159 137 269 235 243 204 219 228 241 221 211
310 313 316 319 322 320 320 312 302 292 274 193 179 241 253 202 188 183 191 190 152 142 67 155 239 233 129 204 277 221 251 235 262 176 137 178 254 255 67 158 222 220 232 232 224
304 307 308 310 315 318 320 301 281 303 242 217 271 244 179 193 121 154 186 187 185 149 168 200 210 220 207 196 227 225 225 253 259 199 188 209 251 264 254 244 252 248 242 240 243
288 302 304 306 314 320 334 338 280 216 231 219 190 246 141 92 169 207 184 164 200 220 202 194 183 215 221 214 232 253 264 264 267 253 181 236 240 251 261 254 245 253 257 251 242
276 296 307 307 311 312 295 322 117 203 297 265 261 249 159 183 198 198 168 175 178 210 210 229 226 230 244 253 266 270 268 266 276 295 206 248 251 252 259 262 256 255 262 261 238
265 285 303 308 312 302 321 21 329 302 243 238 226 218 229 172 223 200 173 197 189 206 209 222 196 214 235 251 252 247 249 259 263 283 223 312 269 252 245 249 258 261 255 259 227
260 269 308 312 290 336 57 335 317 289 260 238 194 305 106 254 272 7 194 181 227 221 216 251 240 245 255 249 223 265 235 256 266 285 259 177 283 231 220 227 226 248 256 247 221
244 240 272 324 306 309 360 321 308 256 282 163 152 270 31 219 19 15 345 4 241 202 192 221 202 198 233 240 227 264 205 231 270 264 302 258 280 219 190 231 239 242 254 257 219
224 217 162 212 217 257 347 305 272 245 245 214 140 165 170 187 173 105 268 309 356 276 262 257 124 245 227 71 1 118 89 214 230 208 255 207 216 213 202 211 221 223 240 253 176
235 197 169 187 309 118 270 260 261 225 231 193 204 173 197 191 197 182 180 192 202 189 226 229 233 179 136 186 153 195 139 292 299 199 251 186 223 239 197 177 188 210 234 191 153
240 219 206 199 192 157 23 60 248 207 217 295 172 183 215 183 221 192 216 225 217 239 306 238 274 181 177 207 166 184 182 175 237 248 275 201 250 237 205 217 206 203 235 160 169
252 198 198 193 173 96 122 194 235 248 260 273 294 273 243 206 231 174 219 243 217 193 205 207 246 42 151 122 159 183 203 196 264 112 302 247 268 311 275 238 220 218 165 175 178
230 211 201 170 135 115 154 244 241 231 314 288 270 287 276 238 190 194 204 206 231 204 221 260 262 185 85 45 284 217 167 134 231 246 242 277 278 267 208 231 223 191 205 216 207
227 253 327 148 130 180 210 232 268 251 242 263 252 279 278 292 291 275 253 253 210 235 198 234 228 205 122 205 190 168 237 223 269 190 237 270 272 276 139 154 176 208 204 226 199
199 243 141 144 188 191 223 207 232 260 216 250 183 257 255 266 269 270 283 288 330 353 285 212 233 237 236 232 237 234 220 188 221 237 232 234 261 221 153 164 161 193 198 213 200
250 197 197 218 221 218 273 246 239 259 240 208 229 213 222 249 266 249 248 259 279 288 26 3 319 331 287 279 216 220 227 238 257 264 249 245 264 171 252 249 228 192 208 220 224
294 255 224 239 225 240 241 230 242 236 256 255 257 217 235 240 237 241 250 264 264 279 122 107 237 244 245 250 286 265 269 248 244 242 252 249 262 272 266 273 274 274 247 225 223
229 248 185 210 257 254 239 226 236 235 232 241 228 222 210 233 243 239 247 260 255 241 146 174 233 235 242 248 259 258 262 275 267 266 264 276 267 272 271 267 264 266 269 248 264
279 320 4 315 304 272 262 261 252 249 251 244 235 235 219 230 230 248 222 226 234 116 208 178 240 226 232 235 243 252 257 259 255 254 246 249 267 256 265 276 276 271 273 277 274
290 117 346 272 279 283 260 267 272 280 270 277 273 269 253 237 235 240 251 250 239 214 207 178 201 199 243 230 237 243 236 242 252 247 245 245 240 254 258 255 261 271 275 274 261